This is the latest recevied weather packets stored in our database for station/object W0DP-11. If no packets are shown the sender has not sent any weather packets the latest 10 day(s).
| Time | Temp. | Humidity | Pressure | Rain* | Wind** | Luminosity | Snow |
|---|---|---|---|---|---|---|---|
| 1777637417 | -2.78° C | 92% | 1018.1 hPa | 0 mm | - | - | - |
| 1777636817 | -3.33° C | 93% | 1018 hPa | 0 mm | - | - | - |
| 1777635617 | -2.22° C | 95% | 1017.9 hPa | 0 mm | - | - | - |
| 1777635017 | -3.89° C | 94% | 1017.8 hPa | 0 mm | - | - | - |
| 1777633217 | -5.56° C | 95% | 1017.4 hPa | 0 mm | - | - | - |
| 1777632017 | -6.11° C | 94% | 1017.3 hPa | 0 mm | - | - | - |
| 1777630817 | -5.56° C | 95% | 1017.4 hPa | 0 mm | - | - | - |
| 1777629617 | -5.56° C | 95% | 1017.3 hPa | 0 mm | - | - | - |
| 1777629017 | -5.56° C | 95% | 1017.2 hPa | 0 mm | - | - | - |
| 1777628417 | -5.56° C | 95% | 1017.1 hPa | 0 mm | - | - | - |
| 1777627217 | -5.56° C | 95% | 1017.2 hPa | 0 mm | - | - | - |
| 1777623010 | -5° C | 95% | 1016.9 hPa | 0 mm | - | - | - |
| 1777621817 | -5° C | 95% | 1017 hPa | 0 mm | - | - | - |
| 1777617616 | -4.44° C | 94% | 1016.8 hPa | 0 mm | - | - | - |
| 1777615816 | -4.44° C | 93% | 1016.9 hPa | 0 mm | - | - | - |
| 1777613416 | -3.33° C | 91% | 1016.7 hPa | 0 mm | - | - | - |
| 1777611017 | -2.78° C | 88% | 1016.6 hPa | 0 mm | - | - | - |
| 1777609817 | -2.78° C | 87% | 1016.5 hPa | 0 mm | - | - | - |
| 1777606216 | -1.67° C | 80% | 1016.7 hPa | 0 mm | - | - | - |
| 1777605016 | -1.67° C | 79% | 1016.7 hPa | 0 mm | - | - | - |
| 1777603816 | -1.11° C | 78% | 1016.7 hPa | 0 mm | - | - | - |
| 1777599616 | 0° C | 73% | 1016.4 hPa | 0 mm | - | - | - |
| 1777593616 | 1.67° C | 69% | 1016.4 hPa | 0 mm | - | - | - |
| 1777586415 | 2.22° C | 63% | 1016.5 hPa | 0 mm | - | - | - |
| 1777582217 | 2.22° C | 65% | 1016.4 hPa | 0 mm | - | - | - |
* Rain latest hour (hover to see other rain measurements)
** Current wind speed in m/s (hover to see current wind gust speed)